Showing default

ARCTIC WEATHER SATELLITE, 60543

Orbit data source: Space-Track

ARCTIC WEATHER SATELLITE, 60543 is a payload satellite owned by ESA (NO) in SSO that was launched on Fri, 16 Aug 2024 UTC via an FALCON 9 launch vehicle from the Air Force Western Test Range (AFWTR). Payload-class satellites include a variety of spacecraft equipped with specific instruments for various scientific and technological missions. These include communications satellites like Starlink; space stations such as the ISS; scientific satellites like the Hubble; Earth observation satellites from companies like Planet Labs, Umbra, and HawkEye 360; GPS; miniature CubeSats for education and research; and military/defense satellites.

Loading next visibility...
Identifier
60543, 2024-149CD
Orbit
SSO
Country
Flag of NONO / NOR
Related business
Manufacturer
OHB-SE
Mission
Operational Civil Earth Obs Sci
Bus & Motor
INNOSAT, Unknown motor
Mass
125 kg wet, ~120 kg dry
Launch date (UTC)
2024-08-16 (2 years ago)
Launch vehicle
FALCON 9
Launch site
Air Force Western Test Range (AFWTR)
Object type
Payload
Rocket body
Debris
Shape & HBR
Box + 2 Pan, 2.7 m
Radar Cross Section
2.380 m², Large (>1 m²)

Expand to show TLE details & history
Last TLE update: 14 hours ago

TLE from 14 hours ago
0 ARCTIC WEATHER SATELLITE
1 60543U 24149CD  26264.93776733  .00000452  00000-0  52680-4 0  9999
2 60543  97.6716 332.5912 0003195 127.3259 232.8251 14.89816364113703
Epoch: 2026-09-21T22:30Z
TLE epoch observation values (Epoch: 2026-09-21T22:30:23.097Z)
Latitude
0.00004°
Longitude
-5.81547°
Altitude
602.898 km
Speed
7.557 km/s
True Right ascension
22h 10m 21s
True Declination
0° 00' 00"
Sunlit
Object was in full shadow at epoch
Visualization orbit readout
Latitude
Unknown
Longitude
Unknown
Altitude
Unknown
Speed
Unknown
Apparent Right ascension
Unknown
Apparent Declination
Unknown
Sunlit
N/A
Visualization observer readout
Local Sidereal Time
05:27:24
Azimuth
Unknown
Elevation
Unknown
Doppler factor
Unknown
Orbital elements
Apogee altitude
597.755 km
Perigee altitude
593.298 km
Semi-major axis
6,973.664 km
Eccentricity
0.00032
Inclination
97.6716°
RAAN
332.5912°
Arg. of periapsis
127.3259°
True anomaly
232.79593°
Mean anomaly
232.8251°
Eccentric anomaly
232.81052°
Mean motion
3.72693 °/min
Orbital period
96.59 mins
BSTAR
0.00005268
Loading maneuver chart data...
Computing Atmospheric mass density...
Loading historical data...
Loading historical data...
Loading historical data...
Loading historical data...
Loading historical data...
Loading historical data...
Loading historical data...

Documentation

Showing up to 5 results
|